Hourly Data Report for October 02, 2017

All times are specified in Local Standard Time (LST). Add 1 hour to adjust for Daylight Saving Time where and when it is observed.

CLEARWATER AUTO
BRITISH COLUMBIA

51°39'09.300" N
120°04'56.400" W
438.00 m
1161650
71645
VCW

Download Data

Hourly Data (October 2017)
Hourly Data Report for October 2, 2017
Temp Definition
°C
Dew Point Temp Definition
°C
Rel Hum Definition
%
Wind Dir Definition
10's deg

Wind Spd Definition
km/h
Visibility Definition
km
Stn Press Definition
kPa
Hmdx Definition


Wind Chill Definition


Weather Definition


TIME
00:00 4.0 1.8 85 32 4   96.80     LegendNANA
01:00 4.1 1.7 84 32 2   96.82     LegendNANA
02:00 3.7 1.3 84 31 3   96.87     LegendNANA
03:00 4.1 1.6 84 0 1   96.92     LegendNANA
04:00 4.2 1.8 84 34 3   96.97     LegendNANA
05:00 4.1 1.7 85 4 2   97.02     LegendNANA
06:00 2.2 -0.1 85 4 2   97.06     LegendNANA
07:00 2.7 0.2 84 4 2   97.10     LegendNANA
08:00 4.0 1.3 83 12 1   97.13     LegendNANA
09:00 6.3 1.7 72 21 6   97.15     LegendNANA
10:00 8.8 1.3 59 23 2   97.14     LegendNANA
11:00 11.0 0.4 48 12 6   97.14     LegendNANA
12:00 12.6 -0.6 40 20 3   97.10     LegendNANA
13:00 13.9 -1.3 35 20 4   97.06     LegendNANA
14:00 14.9 -2.2 31 14 4   97.04     LegendNANA
15:00 15.9 -3.1 27 18 6   96.98     LegendNANA
16:00 15.5 -4.9 24 12 7   97.00     LegendNANA
17:00 13.2 -1.4 36 31 3   97.05     LegendNANA
18:00 9.0 -0.5 51 23 1   97.11     LegendNANA
19:00 6.4 0.1 64 31 4   97.17     LegendNANA
20:00 4.8 0.3 73 11 1   97.24     LegendNANA
21:00 3.7 0.0 76 33 3   97.31     LegendNANA
22:00 2.4 -0.6 80 36 2   97.36     LegendNANA
23:00 1.7 -0.9 83 34 2   97.41     LegendNANA

Notes on Data Quality.

Legend

  • E = Estimated
  • M = Missing
  • NA = Not Available
  • ‡ = Partner data that is not subject to review by the National Climate Archives
Date modified: